John Glenn Columbus International (CMH)

 

Airport Diagram
Current Weather/Forecast (VFR Conditions)
METAR KCMH 040251Z 02004KT 10SM CLR 20/12 A3007 RMK AO2 SLP178 T02000122 51013
TAF KCMH 032326Z 0400/0424 03005KT P6SM FEW250 FM041400 05006KT P6SM SCT050 FM041700 06007KT P6SM VCSH SCT050 FM042300 05004KT P6SM SCT250

Airport Information

All Charts
General
Chart Name View
AIRPORT DIAGRAM
TAKEOFF MINIMUMS
ALTERNATE MINIMUMS
HOT SPOT

Arrivals
Chart Name Download
BREMN FIVE
BREMN FIVE, CONT.1
GAILL THREE (RNAV)
GUNNE FOUR
GUNNE FOUR, CONT.1

Approaches
Chart Name Download
ILS OR LOC RWY 10L
ILS OR LOC RWY 10R
ILS OR LOC RWY 28L
ILS OR LOC RWY 28R
ILS RWY 10R (SA CAT I - II)
ILS RWY 28L (SA CAT I - II)
RNAV (RNP) Z RWY 10L
RNAV (RNP) Z RWY 10R
RNAV (RNP) Z RWY 28L
RNAV (RNP) Z RWY 28R
RNAV (GPS) Y RWY 10L
RNAV (GPS) Y RWY 10R
RNAV (GPS) Y RWY 28L
RNAV (GPS) Y RWY 28R


Airport Statistics
Departures Arrivals Local
All Collected Stats since June 2016: 2110 1695 103
2021 Stats: 485 391 48
August Stats: 7 7 0

Inbound Traffic (Arrivals) - 0

No inbound traffic.


Outbound Traffic (Departures) - 0

No outbound traffic.


Local Traffic (Pattern) - 0

No local traffic.